Weather History for KMUO - April, 2013

Change the Weather History Date:

Sunday, April 7, 2013

  Actual Average Record
Temperature  
Mean Temperature 48 °F 47 °F  
Max Temperature 57 °F 60 °F 83 °F (1970)
Min Temperature 38 °F 34 °F 15 °F (1929)
Degree Days  
Heating Degree Days 17 18  
Month to date heating degree days 79 129  
Moisture  
Dew Point 40 °F    
Average Humidity 80    
Maximum Humidity 100    
Minimum Humidity 40    
Precipitation  
Precipitation 0.02 in 0.03 in 0.34 in (1976)
Month to date precipitation 0.27 0.25  
Sea Level Pressure  
Sea Level Pressure 29.78 in    
Wind  
Wind Speed 7 mph (East)    
Max Wind Speed 25 mph    
Max Gust Speed 32 mph    
Visibility 10 miles    
Events Rain    
T = Trace of Precipitation, MM = Missing Value Source: NWS Daily Summary

Daily Weather History Graph

Daily Weather History Graph

Search for Another Location

Airport or City:

Trip Planner

Search our weather history database for the weather conditions in past years. The results will help you decide how hot, cold, wet, or windy it might be!

Date:

Astronomy

Apr. 07, 2013 Rise Set
Actual Time 7:14 AM MDT 8:17 PM MDT
Civil Twilight 6:45 AM MDT 8:46 PM MDT
Nautical Twilight 6:10 AM MDT 9:21 PM MDT
Astronomical Twilight 5:34 AM MDT 9:57 PM MDT
Moon 5:38 AM MDT (4/7) 5:50 PM MDT (4/7)
Length of Visible Light 14h 00m
Length of Day
13h 02m
Waning Crescent, 8% of the Moon is Illuminated
Apr 7
Waning Crescent
Apr 10
New
Apr 18
First Quarter
Apr 25
Full
May 2
Last Quarter

Hourly Weather History & Observations

Time (MDT) Temp. Windchill Dew Point Humidity Pressure Visibility Wind Dir Wind Speed Gust Speed Precip Events Conditions
12:28 AM 44.6 °F 42.2 °F 42.8 °F 93% 29.90 in 10.0 mi ESE 4.6 mph - N/A   Light Drizzle
12:38 AM 46.4 °F 41.1 °F 42.8 °F 87% 29.89 in 10.0 mi East 11.5 mph - N/A   Light Drizzle
12:58 AM 45.7 °F 42.7 °F 42.6 °F 89% 29.90 in 10.0 mi East 5.8 mph - 0.00 in   Mostly Cloudy
1:13 AM 46.4 °F 45.2 °F 42.8 °F 87% 29.91 in 10.0 mi WSW 3.5 mph - N/A Rain Light Rain
1:38 AM 44.6 °F 40.2 °F 42.8 °F 93% 29.90 in 10.0 mi ESE 8.1 mph - N/A   Overcast
1:58 AM 45.1 °F 42.8 °F 42.8 °F 91% 29.89 in 10.0 mi East 4.6 mph - 0.00 in   Overcast
2:58 AM 45.7 °F 42.0 °F 43.2 °F 91% 29.87 in 10.0 mi North 6.9 mph - 0.00 in   Overcast
3:08 AM 46.4 °F 43.5 °F 42.8 °F 87% 29.87 in 10.0 mi NNE 5.8 mph - N/A   Mostly Cloudy
3:58 AM 45.1 °F 42.0 °F 42.4 °F 90% 29.86 in 10.0 mi NNE 5.8 mph - N/A   Overcast
4:48 AM 44.6 °F 43.1 °F 41.0 °F 87% 29.84 in 10.0 mi ENE 3.5 mph - N/A   Overcast
4:58 AM 45.0 °F 43.5 °F 41.4 °F 87% 29.84 in 10.0 mi SSE 3.5 mph - N/A   Overcast
5:03 AM 44.6 °F 42.2 °F 41.0 °F 87% 29.84 in 10.0 mi SSE 4.6 mph - N/A   Overcast
5:13 AM 42.8 °F 38.6 °F 41.0 °F 93% 29.83 in 10.0 mi East 6.9 mph - N/A   Overcast
5:23 AM 42.8 °F 40.1 °F 41.0 °F 93% 29.84 in 10.0 mi SSE 4.6 mph - N/A   Overcast
5:28 AM 42.8 °F 39.3 °F 41.0 °F 93% 29.84 in 10.0 mi SSE 5.8 mph - N/A   Overcast
5:38 AM 42.8 °F 40.1 °F 41.0 °F 93% 29.83 in 10.0 mi SE 4.6 mph - N/A   Overcast
5:58 AM 43.2 °F 40.5 °F 42.1 °F 96% 29.83 in 10.0 mi SE 4.6 mph - N/A   Overcast
6:03 AM 42.8 °F 39.3 °F 41.0 °F 93% 29.83 in 10.0 mi SE 5.8 mph - N/A   Overcast
6:08 AM 42.8 °F 39.3 °F 41.0 °F 93% 29.83 in 10.0 mi ESE 5.8 mph - N/A   Overcast
6:18 AM 42.8 °F 39.3 °F 41.0 °F 93% 29.83 in 10.0 mi ESE 5.8 mph - N/A   Mostly Cloudy
6:38 AM 41.0 °F 37.1 °F 41.0 °F 100% 29.83 in 10.0 mi SE 5.8 mph - N/A   Overcast
6:53 AM 41.0 °F 36.4 °F 41.0 °F 100% 29.82 in 10.0 mi East 6.9 mph - N/A   Overcast
6:58 AM 41.9 °F 36.3 °F 41.7 °F 99% 29.82 in 10.0 mi East 9.2 mph - 0.00 in   Light Drizzle
7:03 AM 42.8 °F 37.5 °F 42.8 °F 100% 29.82 in 10.0 mi ESE 9.2 mph - N/A   Light Drizzle
7:58 AM 42.6 °F 37.2 °F 42.4 °F 99% 29.83 in 10.0 mi ESE 9.2 mph - 0.00 in   Overcast
8:18 AM 42.8 °F 39.3 °F 42.8 °F 100% 29.81 in 10.0 mi ESE 5.8 mph - N/A   Mostly Cloudy
8:58 AM 45.9 °F 41.2 °F 45.3 °F 98% 29.81 in 10.0 mi ESE 9.2 mph - 0.00 in   Scattered Clouds
9:58 AM 49.8 °F - 43.9 °F 80% 29.79 in 10.0 mi East 10.4 mph - N/A   Scattered Clouds
10:58 AM 51.6 °F - 43.9 °F 75% 29.77 in 10.0 mi East 8.1 mph - N/A   Partly Cloudy
11:43 AM 55.4 °F - 37.4 °F 51% 29.77 in 10.0 mi NW 6.9 mph - N/A   Mostly Cloudy
11:58 AM 55.0 °F - 37.8 °F 52% 29.77 in 10.0 mi West 4.6 mph - N/A   Overcast
12:28 PM 57.2 °F - 33.8 °F 41% 29.76 in 10.0 mi West 17.3 mph 23.0 mph N/A   Mostly Cloudy
12:58 PM 56.5 °F - 33.1 °F 41% 29.74 in 10.0 mi West 16.1 mph 24.2 mph N/A   Mostly Cloudy
1:58 PM 55.9 °F - 31.6 °F 40% 29.73 in 10.0 mi West 25.3 mph 32.2 mph N/A   Overcast
2:48 PM 55.4 °F - 32.0 °F 41% 29.72 in 10.0 mi West 16.1 mph - N/A   Overcast
2:58 PM 54.7 °F - 34.5 °F 47% 29.71 in 10.0 mi WNW 20.7 mph 26.5 mph N/A   Overcast
3:12 PM 51.8 °F - 37.4 °F 58% 29.71 in 10.0 mi NNW 23.0 mph - N/A Rain Light Rain
3:37 PM 53.6 °F - 39.2 °F 58% 29.72 in 10.0 mi NNW 15.0 mph - N/A   Mostly Cloudy
3:58 PM 52.7 °F - 36.9 °F 55% 29.73 in 10.0 mi NW 23.0 mph 31.1 mph 0.00 in   Light Drizzle
4:08 PM 50.0 °F - 39.2 °F 66% 29.73 in 9.0 mi WNW 19.6 mph - N/A Rain Light Rain
4:13 PM 48.2 °F - 39.2 °F 71% 29.73 in 5.0 mi NW 17.3 mph 28.8 mph N/A Rain Rain
4:33 PM 48.2 °F - 41.0 °F 76% 29.73 in 10.0 mi NNW 12.7 mph - N/A Rain Light Rain
4:38 PM 48.2 °F - 41.0 °F 76% 29.73 in 10.0 mi NNW 11.5 mph - N/A Rain Light Rain
4:48 PM 48.2 °F - 41.0 °F 76% 29.72 in 10.0 mi NNE 5.8 mph - N/A   Overcast
4:58 PM 47.7 °F - 41.0 °F 78% 29.72 in 10.0 mi North 6.9 mph - 0.02 in   Overcast
5:23 PM 48.2 °F - 41.0 °F 76% 29.72 in 10.0 mi ENE 2.3 mph - N/A   Overcast
5:43 PM 50.0 °F - 41.0 °F 71% 29.72 in 10.0 mi South 2.3 mph - N/A   Overcast
5:58 PM 49.3 °F - 42.3 °F 77% 29.73 in 10.0 mi SSE 6.9 mph - N/A   Overcast
6:13 PM 48.2 °F - 41.0 °F 76% 29.72 in 10.0 mi SE 4.6 mph - N/A   Overcast
6:18 PM 48.2 °F - 41.0 °F 76% 29.72 in 10.0 mi SSE 4.6 mph - N/A   Overcast
6:48 PM 48.2 °F - 41.0 °F 76% 29.71 in 10.0 mi ESE 3.5 mph - N/A   Mostly Cloudy
6:58 PM 48.7 °F - 41.2 °F 75% 29.72 in 10.0 mi Variable 5.8 mph - 0.00 in   Light Drizzle
7:58 PM 47.1 °F - 37.2 °F 68% 29.71 in 10.0 mi WNW 8.1 mph - 0.00 in   Light Drizzle
8:03 PM 46.4 °F 43.5 °F 35.6 °F 66% 29.69 in 10.0 mi WNW 5.8 mph - N/A   Mostly Cloudy
8:08 PM 46.4 °F - 35.6 °F 66% 29.69 in 10.0 mi WNW 2.3 mph - N/A   Scattered Clouds
8:58 PM 45.5 °F 41.8 °F 39.9 °F 81% 29.70 in 10.0 mi East 6.9 mph - 0.00 in   Mostly Cloudy
9:58 PM 42.6 °F 39.9 °F 39.7 °F 90% 29.70 in 10.0 mi East 4.6 mph - N/A   Scattered Clouds
10:03 PM 42.8 °F 41.1 °F 41.0 °F 93% 29.69 in 10.0 mi East 3.5 mph - N/A   Mostly Cloudy
10:28 PM 41.0 °F 39.0 °F 39.2 °F 93% 29.69 in 10.0 mi ENE 3.5 mph - N/A   Scattered Clouds
10:58 PM 41.4 °F - 39.6 °F 93% 29.70 in 10.0 mi Calm Calm - N/A   Clear
11:58 PM 39.6 °F 37.4 °F 38.3 °F 95% 29.70 in 10.0 mi NW 3.5 mph - N/A   Clear